Notices

What's New in latest Release from April 7th, 2021:

- Updated Glossary, including Speed of Maximum Gust, and Total Hourly Precipitation

- Updated national and regional climate services offices contacts and prices information

- Addition of station inventory lists for 1981-2010, 1971-2000, and 1961-1990 Normals.

If you haven't already, please take our survey and provide feedback about our website: https://eccc.sondage-survey.ca/f/LanguageSelection.aspx?s=442ca660-fcf1-47c0-95a9-59707d6fd709

Hourly Data Report for August 10, 2016

TORONTO CITY
ONTARIO

43°40'00.000" N
79°24'00.000" W
112.50 m
6158355
71508
XTO

Download Data

Hourly Data (August 2016)
Hourly Data Report for August 10, 2016
TIME
LST
Temp Definition
°C
Dew Point Definition
°C
Rel Hum Definition
%
Precip. Amount Definition
mm

Wind Dir Definition
10's deg

Wind Spd Definition
km/h
Visibility Definition
km
Stn Press Definition
kPa
Hmdx Definition


Wind Chill Definition


Weather Definition


00:00 24.3 18.8 71 0.0 LegendMM LegendMM   100.28 31   LegendNANA
01:00 25.2 19.6 71 0.0 LegendMM LegendMM   100.30 32   LegendNANA
02:00 24.0 19.8 78 0.0 LegendMM LegendMM   100.25 31   LegendNANA
03:00 24.0 20.0 78 0.0 LegendMM LegendMM   100.28 32   LegendNANA
04:00 22.9 19.9 83 0.0 LegendMM LegendMM   100.29 30   LegendNANA
05:00 23.3 20.1 82 0.0 LegendMM LegendMM   100.33 31   LegendNANA
06:00 23.5 20.1 81 0.0 LegendMM LegendMM   100.38 31   LegendNANA
07:00 24.4 19.8 75 0.0 LegendMM LegendMM   100.43 32   LegendNANA
08:00 26.4 19.3 65 0.0 LegendMM LegendMM   100.46 33   LegendNANA
09:00 28.1 19.5 60 0.0 LegendMM LegendMM   100.44 35   LegendNANA
10:00 29.3 19.2 55 0.0 LegendMM LegendMM   100.47 36   LegendNANA
11:00 30.1 20.1 55 0.0 LegendMM LegendMM   100.47 38   LegendNANA
12:00 30.7 20.1 53 0.0 LegendMM LegendMM   100.44 38   LegendNANA
13:00 31.3 19.4 49 0.0 LegendMM LegendMM   100.44 38   LegendNANA
14:00 32.9 18.3 42 0.0 LegendMM LegendMM   100.40 39   LegendNANA
15:00 32.4 17.7 42 0.0 LegendMM LegendMM   100.34 38   LegendNANA
16:00 31.9 17.7 43 0.0 LegendMM LegendMM   100.31 38   LegendNANA
17:00 31.3 18.6 47 0.0 LegendMM LegendMM   100.28 38   LegendNANA
18:00 30.4 19.8 53 0.0 LegendMM LegendMM   100.25 38   LegendNANA
19:00 29.3 19.8 57 0.0 LegendMM LegendMM   100.27 37   LegendNANA
20:00 28.1 20.1 62 0.0 LegendMM LegendMM   100.31 36   LegendNANA
21:00 29.1 16.3 46 0.0 LegendMM LegendMM   100.39 34   LegendNANA
22:00 27.2 16.6 53 0.0 LegendMM LegendMM   100.37 32   LegendNANA
23:00 25.9 16.9 58 0.0 LegendMM LegendMM   100.39 31   LegendNANA

Notes on Data Quality.

Legend

  • E = Estimated
  • M = Missing
  • NA = Not Available*
  • [empty] = Indicates an unobserved value
Date modified: